SQ5BUJ-13 Weather Reports


time (UTC)temp
C
wind
direction
speed
KPH
gust
KPH
rain 1hr
cm
rain 24hr
cm
rain mn
cm
humidity
%
barometer
mb
20260905223003 13 260 4.8 0.0 0.00 0.00 0.00 83 1015.1
20260905221503 13 260 4.8 0.0 0.00 0.00 0.00 83 1015.1
20260905220006 15 270 4.8 0.0 0.00 0.00 0.00 76 1014.5
20260905214503 15 270 4.8 0.0 0.00 0.00 0.00 76 1014.5
20260905213004 15 270 4.8 0.0 0.00 0.00 0.00 76 1014.5
20260905211504 15 270 4.8 0.0 0.00 0.00 0.00 76 1014.5
20260905210004 15 260 4.8 0.0 0.00 0.00 0.00 70 1014.1
20260905204503 15 260 4.8 0.0 0.00 0.00 0.00 70 1014.1
20260905203003 15 260 4.8 0.0 0.00 0.00 0.00 70 1014.1
20260905201503 15 260 4.8 0.0 0.00 0.00 0.00 70 1014.1
20260905200004 15 230 1.6 0.0 0.00 0.00 0.00 72 1014.1
20260905194504 15 230 1.6 0.0 0.00 0.00 0.00 72 1014.1
20260905193004 15 230 1.6 0.0 0.00 0.00 0.00 72 1014.1
20260905191503 15 250 1.6 0.0 0.00 0.00 0.00 69 1014.4
20260905190003 15 250 1.6 0.0 0.00 0.00 0.00 69 1014.4
20260905184505 15 250 1.6 0.0 0.00 0.00 0.00 69 1014.4
20260905183003 15 250 1.6 0.0 0.00 0.00 0.00 69 1014.4
20260905181504 15 250 1.6 0.0 0.00 0.00 0.00 69 1014.4
20260905180003 16 260 3.2 0.0 0.00 0.00 0.00 64 1013.9
20260905174503 16 260 3.2 0.0 0.00 0.00 0.00 64 1013.9
20260905173004 16 260 3.2 0.0 0.00 0.00 0.00 64 1013.9
20260905171503 16 260 3.2 0.0 0.00 0.00 0.00 60 1013.5
20260905170004 16 260 3.2 0.0 0.00 0.00 0.00 60 1013.5
20260905164504 16 260 3.2 0.0 0.00 0.00 0.00 60 1013.5
20260905163003 16 260 3.2 0.0 0.00 0.00 0.00 60 1013.5
20260905161503 16 260 3.2 0.0 0.00 0.00 0.00 60 1013.5
20260905160004 18 270 8.0 0.0 0.00 0.00 0.00 50 1013.2
20260905154503 18 270 8.0 0.0 0.00 0.00 0.00 50 1013.2
20260905153003 18 270 8.0 0.0 0.00 0.00 0.00 50 1013.2
20260905151503 20 270 6.4 0.0 0.00 0.00 0.00 43 1012.3
20260905150003 20 270 6.4 0.0 0.00 0.00 0.00 43 1012.3
20260905144504 20 270 6.4 0.0 0.00 0.00 0.00 43 1012.3
20260905143004 20 270 6.4 0.0 0.00 0.00 0.00 43 1012.3
20260905141504 20 270 6.4 0.0 0.00 0.00 0.00 43 1012.3
20260905140003 20 270 8.0 0.0 0.00 0.00 0.00 45 1012.3
20260905134503 20 270 8.0 0.0 0.00 0.00 0.00 45 1012.3
20260905133003 20 270 8.0 0.0 0.00 0.00 0.00 45 1012.3
20260905131502 20 270 8.0 0.0 0.00 0.00 0.00 45 1012.3
20260905130004 20 270 6.4 0.0 0.00 0.00 0.00 46 1012.3
20260905124503 20 270 6.4 0.0 0.00 0.00 0.00 46 1012.3
20260905123005 20 270 6.4 0.0 0.00 0.00 0.00 46 1012.3
20260905121503 20 270 6.4 0.0 0.00 0.00 0.00 46 1012.3
20260905120003 20 260 6.4 0.0 0.00 0.00 0.00 50 1012.2
20260905114504 20 260 6.4 0.0 0.00 0.00 0.00 50 1012.2
20260905113003 20 260 6.4 0.0 0.00 0.00 0.00 50 1012.2
20260905111503 20 260 6.4 0.0 0.00 0.00 0.00 50 1012.2
20260905110003 18 260 6.4 0.0 0.00 0.00 0.00 55 1011.7
20260905104504 18 260 6.4 0.0 0.00 0.00 0.00 55 1011.7
20260905103003 18 260 6.4 0.0 0.00 0.00 0.00 55 1011.7
20260905101503 18 260 6.4 0.0 0.00 0.00 0.00 55 1011.7
20260905100003 17 270 6.4 0.0 0.00 0.00 0.00 62 1011.5
20260905094503 17 270 6.4 0.0 0.00 0.00 0.00 62 1011.5
20260905093003 17 270 6.4 0.0 0.00 0.00 0.00 62 1011.5
20260905091503 17 270 6.4 0.0 0.00 0.00 0.00 62 1011.5
20260905090003 17 260 6.4 0.0 0.00 0.00 0.00 67 1011.4
20260905084503 17 260 6.4 0.0 0.00 0.00 0.00 67 1011.4
20260905083005 17 260 6.4 0.0 0.00 0.00 0.00 67 1011.4
20260905081503 16 260 4.8 0.0 0.00 0.00 0.00 72 1010.7
20260905080004 16 260 4.8 0.0 0.00 0.00 0.00 72 1010.7
20260905074503 16 260 4.8 0.0 0.00 0.00 0.00 72 1010.7
20260905073003 16 260 4.8 0.0 0.00 0.00 0.00 72 1010.7
20260905071503 16 270 4.8 0.0 0.00 0.00 0.00 72 1010.1
20260905070004 16 270 4.8 0.0 0.00 0.00 0.00 72 1010.1
20260905064503 16 270 4.8 0.0 0.00 0.00 0.00 72 1010.1
20260905063003 16 270 4.8 0.0 0.00 0.00 0.00 72 1010.1
20260905061503 16 270 4.8 0.0 0.00 0.00 0.00 72 1010.1
20260905060003 15 270 4.8 0.0 0.00 0.00 0.00 70 1009.4
20260905054503 15 270 4.8 0.0 0.00 0.00 0.00 70 1009.4
20260905053003 15 270 4.8 0.0 0.00 0.00 0.00 70 1009.4
20260905051503 15 270 4.8 0.0 0.00 0.00 0.00 70 1009.4
20260905050003 16 260 6.4 0.0 0.00 0.00 0.00 75 1008.1
20260905044504 16 260 6.4 0.0 0.00 0.00 0.00 75 1008.1
20260905043003 16 260 6.4 0.0 0.00 0.00 0.00 75 1008.1
20260905041503 16 260 6.4 0.0 0.00 0.00 0.00 75 1008.1
20260905040003 17 260 4.8 0.0 0.00 0.00 0.00 80 1007.2
20260905034504 17 260 4.8 0.0 0.00 0.00 0.00 80 1007.2
20260905033003 17 260 4.8 0.0 0.00 0.00 0.00 80 1007.2
20260905031503 17 260 4.8 0.0 0.00 0.00 0.00 80 1007.2
20260905030004 17 260 4.8 0.0 0.00 0.00 0.00 80 1006.8
20260905024503 17 260 4.8 0.0 0.00 0.00 0.00 80 1006.8
20260905023004 17 260 4.8 0.0 0.00 0.00 0.00 80 1006.8
20260905021503 17 260 6.4 0.0 0.00 0.00 0.00 79 1006.2
20260905020004 17 260 6.4 0.0 0.00 0.00 0.00 79 1006.2
20260905014503 17 260 6.4 0.0 0.00 0.00 0.00 79 1006.2
20260905013005 17 260 6.4 0.0 0.00 0.00 0.00 79 1006.2
20260905011503 18 250 4.8 0.0 0.00 0.00 0.00 84 1005.6
20260905010004 18 250 4.8 0.0 0.00 0.00 0.00 84 1005.6
20260905004503 18 250 4.8 0.0 0.00 0.00 0.00 84 1005.6
20260905003004 18 250 4.8 0.0 0.00 0.00 0.00 84 1005.6
20260905001503 18 250 4.8 0.0 0.00 0.00 0.00 84 1005.6
20260905000004 18 250 1.6 0.0 0.00 0.00 0.00 89 1005.4
20260904234503 18 250 1.6 0.0 0.00 0.00 0.00 89 1005.4
20260904233004 18 250 1.6 0.0 0.00 0.00 0.00 89 1005.4
20260904231503 18 250 1.6 0.0 0.00 0.00 0.00 89 1005.4
20260904230003 17 250 1.6 0.0 0.00 0.00 0.00 88 1005.0
20260904224503 17 250 1.6 0.0 0.00 0.00 0.00 88 1005.0